DW9837 Weather Reports


time (UTC)temp
F
wind
direction
speed
knots
gust
knots
rain 1hr
in
rain 24hr
in
rain mn
in
humidity
%
barometer
mb
20260502214520 50 124 0.9 5.2 0.00 0.01 0.01 88 1010.0
20260502213022 51 187 0.0 2.6 0.00 0.01 0.01 87 1010.0
20260502211519 51 142 0.9 3.5 0.00 0.01 0.01 86 1009.9
20260502210019 52 176 0.9 3.5 0.00 0.01 0.01 84 1009.9
20260502204518 53 184 1.7 3.5 0.00 0.01 0.01 83 1009.8
20260502203017 53 120 0.9 3.5 0.00 0.01 0.01 81 1010.1
20260502201516 53 178 1.7 6.1 0.00 0.01 0.01 83 1010.2
20260502200013 51 187 0.9 6.1 0.00 0.01 0.01 88 1010.3
20260502194527 51 143 2.6 6.1 0.00 0.01 0.01 87 1010.4
20260502193011 51 184 2.6 5.2 0.00 0.01 0.01 87 1010.6
20260502191510 51 204 1.7 4.3 0.00 0.01 0.01 87 1010.7
20260502190011 51 191 1.7 6.1 0.00 0.01 0.01 87 1010.7
20260502184508 51 176 0.9 4.3 0.00 0.01 0.01 88 1010.9
20260502183008 51 168 1.7 4.3 0.00 0.01 0.01 88 1010.9
20260502181518 51 198 1.7 4.3 0.00 0.01 0.01 89 1011.1
20260502163106 50 177 0.0 3.5 0.00 0.01 0.01 86 1011.7
20260502161607 50 220 0.9 2.6 0.00 0.01 0.01 86 1011.4
20260502151630 49 201 0.9 3.5 0.01 0.01 0.01 88 1012.1
20260502150103 49 184 1.7 5.2 0.01 0.01 0.01 87 1012.1
20260502123051 51 184 0.0 2.6 0.00 0.00 0.00 83 1012.2
20260502121547 51 253 1.7 5.2 0.00 0.00 0.00 82 1012.7
20260502114541 50 289 0.0 1.7 0.00 0.00 0.00 83 1012.2
20260502113037 50 250 0.0 0.0 0.00 0.00 0.00 84 1012.1
20260502111538 49 172 0.0 0.9 0.00 0.00 0.00 85 1012.1
20260502110034 48 178 0.0 0.0 0.00 0.00 0.00 86 1011.9
20260502104536 47 178 0.0 0.0 0.00 0.00 0.00 87 1012.0
20260502103032 47 178 0.0 0.0 0.00 0.00 0.00 87 1011.8
20260502101532 46 178 0.0 0.0 0.00 0.00 0.00 86 1011.7
20260502091530 48 154 0.0 0.0 0.00 0.00 0.00 83 1011.7
20260502071522 47 155 0.0 0.9 0.00 0.00 0.00 82 1011.6
20260502070021 46 120 0.0 0.9 0.00 0.00 0.00 82 1011.9
20260502064518 46 120 0.0 0.9 0.00 0.00 0.00 81 1012.1
20260502063017 46 120 0.0 0.9 0.00 0.00 0.00 80 1011.5
20260502061528 47 120 0.0 0.9 0.00 0.00 0.00 79 1011.8
20260502060016 47 120 0.0 0.9 0.00 0.00 0.00 78 1011.8
20260502054511 48 120 0.0 0.9 0.00 0.00 0.00 77 1011.7
20260502053009 48 130 0.0 0.9 0.00 0.00 0.00 76 1012.0
20260502051517 48 154 0.0 0.9 0.00 0.00 0.00 76 1012.1
20260502050006 48 164 0.0 1.7 0.00 0.00 0.00 76 1012.4
20260502044504 48 109 0.0 0.9 0.00 0.00 0.00 74 1012.3
20260502043002 49 34 0.0 0.9 0.00 0.00 0.00 73 1012.3
20260502041503 49 76 0.0 0.9 0.00 0.00 0.00 74 1012.2
20260502040100 49 250 0.0 0.9 0.00 0.00 0.00 73 1012.3
20260502034558 49 260 0.0 1.7 0.00 0.00 0.00 73 1012.4
20260502033058 49 221 0.0 0.0 0.00 0.00 0.00 72 1012.5
20260502031601 49 220 0.0 0.9 0.00 0.00 0.00 71 1012.4
20260502030109 49 14 0.0 0.9 0.00 0.00 0.00 71 1012.5
20260502024604 50 286 0.0 0.9 0.00 0.00 0.00 70 1012.4
20260502023055 50 205 0.0 0.9 0.00 0.00 0.00 69 1012.4
20260502021602 50 312 0.0 2.6 0.00 0.00 0.00 68 1012.3
20260502020054 50 284 0.9 2.6 0.00 0.00 0.00 68 1012.3
20260502014553 51 316 0.0 3.5 0.00 0.00 0.00 68 1012.3
20260502013053 51 285 0.0 4.3 0.00 0.00 0.00 67 1012.3
20260502011553 51 310 0.9 6.1 0.00 0.00 0.00 66 1012.4
20260502010106 52 322 2.6 6.1 0.00 0.00 0.00 66 1012.2
20260502004556 52 273 2.6 7.8 0.00 0.00 0.00 65 1012.1
20260502003048 52 255 0.9 6.1 0.00 0.00 0.00 63 1011.8
20260502001545 52 353 1.7 5.2 0.00 0.00 0.00 63 1011.4
20260502000045 53 246 1.7 6.1 0.00 0.00 0.00 64 1011.2
20260501234546 54 291 1.7 5.2 0.00 0.00 0.00 62 1010.8
20260501233043 55 305 0.9 3.5 0.00 0.00 0.00 59 1010.7
20260501231543 56 307 0.9 13.0 0.00 0.00 0.00 54 1010.5
20260501230046 57 277 0.9 4.3 0.00 0.00 0.00 42 1010.2
20260501224542 58 294 1.7 7.8 0.00 0.00 0.00 41 1010.2
20260501223043 58 277 2.6 7.0 0.00 0.00 0.00 39 1010.0
20260501221540 59 315 2.6 6.1 0.00 0.00 0.00 39 1010.1
20260501220045 60 284 2.6 7.8 0.00 0.00 0.00 37 1010.1